| time (UTC) | temp F | wind direction | speed knots | gust knots | rain 1hr in | rain 24hr in | rain mn in | humidity % | barometer mb |
| 20260507212651 | 58 | 38 | 1.7 | 3.5 | 0.00 | 0.12 | 0.03 | 72 | 1014.5 |
| 20260507212207 | 58 | 40 | 1.7 | 3.5 | 0.00 | 0.12 | 0.03 | 72 | 1014.5 |
| 20260507211652 | 58 | 42 | 1.7 | 3.5 | 0.00 | 0.12 | 0.03 | 72 | 1014.5 |
| 20260507211149 | 58 | 42 | 0.9 | 3.5 | 0.00 | 0.12 | 0.03 | 72 | 1014.5 |
| 20260507210647 | 58 | 42 | 1.7 | 2.6 | 0.00 | 0.12 | 0.03 | 72 | 1014.4 |
| 20260507210151 | 58 | 42 | 0.9 | 4.3 | 0.00 | 0.12 | 0.03 | 72 | 1014.4 |
| 20260507205648 | 58 | 42 | 2.6 | 4.3 | 0.00 | 0.16 | 0.03 | 72 | 1014.4 |
| 20260507205208 | 58 | 36 | 0.9 | 2.6 | 0.00 | 0.16 | 0.03 | 72 | 1014.5 |
| 20260507204703 | 58 | 36 | 0.9 | 3.5 | 0.00 | 0.16 | 0.03 | 71 | 1014.6 |
| 20260507204155 | 59 | 36 | 1.7 | 3.5 | 0.00 | 0.16 | 0.03 | 71 | 1014.5 |
| 20260507203647 | 59 | 36 | 1.7 | 3.5 | 0.00 | 0.16 | 0.03 | 70 | 1014.4 |
| 20260507203147 | 59 | 36 | 2.6 | 3.5 | 0.00 | 0.16 | 0.03 | 70 | 1014.4 |
| 20260507202656 | 59 | 33 | 0.9 | 3.5 | 0.00 | 0.16 | 0.03 | 70 | 1014.3 |
| 20260507202150 | 59 | 32 | 1.7 | 3.5 | 0.00 | 0.16 | 0.03 | 70 | 1014.2 |
| 20260507201706 | 59 | 32 | 2.6 | 3.5 | 0.00 | 0.16 | 0.03 | 69 | 1014.2 |
| 20260507201226 | 59 | 30 | 1.7 | 3.5 | 0.00 | 0.16 | 0.03 | 69 | 1014.1 |
| 20260507200654 | 60 | 29 | 1.7 | 3.5 | 0.00 | 0.16 | 0.03 | 69 | 1014.0 |
| 20260507200203 | 60 | 28 | 1.7 | 3.5 | 0.00 | 0.16 | 0.03 | 68 | 1014.0 |
| 20260507195703 | 60 | 26 | 2.6 | 3.5 | 0.00 | 0.47 | 0.03 | 67 | 1013.9 |
| 20260507195201 | 60 | 25 | 1.7 | 3.5 | 0.00 | 0.47 | 0.03 | 67 | 1013.8 |
| 20260507194712 | 60 | 24 | 1.7 | 3.5 | 0.00 | 0.47 | 0.03 | 67 | 1013.8 |
| 20260507194149 | 60 | 22 | 1.7 | 2.6 | 0.00 | 0.47 | 0.03 | 67 | 1013.7 |
| 20260507193730 | 60 | 22 | 1.7 | 2.6 | 0.00 | 0.47 | 0.03 | 68 | 1013.7 |
| 20260507193207 | 59 | 21 | 1.7 | 2.6 | 0.00 | 0.47 | 0.03 | 67 | 1013.5 |
| 20260507192657 | 59 | 20 | 1.7 | 2.6 | 0.00 | 0.47 | 0.03 | 67 | 1013.5 |
| 20260507192151 | 59 | 19 | 1.7 | 2.6 | 0.00 | 0.47 | 0.03 | 67 | 1013.3 |
| 20260507191705 | 59 | 19 | 2.6 | 2.6 | 0.00 | 0.47 | 0.03 | 67 | 1013.3 |
| 20260507191208 | 59 | 19 | 0.9 | 3.5 | 0.00 | 0.47 | 0.03 | 66 | 1013.3 |
| 20260507190705 | 60 | 19 | 1.7 | 3.5 | 0.00 | 0.47 | 0.03 | 65 | 1013.2 |
| 20260507190206 | 60 | 19 | 1.7 | 3.5 | 0.00 | 0.47 | 0.03 | 65 | 1013.2 |
| 20260507185655 | 60 | 17 | 2.6 | 4.3 | 0.00 | 0.59 | 0.03 | 65 | 1013.1 |
| 20260507185215 | 60 | 15 | 1.7 | 4.3 | 0.00 | 0.59 | 0.03 | 65 | 1013.0 |
| 20260507184655 | 60 | 19 | 1.7 | 4.3 | 0.00 | 0.59 | 0.03 | 65 | 1013.0 |
| 20260507184155 | 60 | 21 | 2.6 | 3.5 | 0.00 | 0.59 | 0.03 | 65 | 1012.9 |
| 20260507183652 | 60 | 19 | 1.7 | 3.5 | 0.00 | 0.59 | 0.03 | 65 | 1012.9 |
| 20260507183155 | 60 | 18 | 2.6 | 4.3 | 0.00 | 0.59 | 0.03 | 65 | 1012.9 |
| 20260507182659 | 61 | 13 | 2.6 | 4.3 | 0.00 | 0.59 | 0.03 | 64 | 1012.8 |
| 20260507182159 | 61 | 20 | 2.6 | 4.3 | 0.00 | 0.59 | 0.03 | 64 | 1012.7 |
| 20260507181701 | 61 | 17 | 2.6 | 4.3 | 0.00 | 0.59 | 0.03 | 64 | 1012.7 |
| 20260507181153 | 61 | 21 | 1.7 | 3.5 | 0.00 | 0.59 | 0.03 | 64 | 1012.7 |
| 20260507180657 | 61 | 19 | 2.6 | 3.5 | 0.00 | 0.59 | 0.03 | 64 | 1012.6 |
| 20260507180201 | 61 | 17 | 2.6 | 3.5 | 0.00 | 0.59 | 0.03 | 63 | 1012.5 |
| 20260507175702 | 62 | 5 | 2.6 | 3.5 | 0.00 | 0.59 | 0.03 | 63 | 1012.5 |
| 20260507175200 | 62 | 355 | 2.6 | 3.5 | 0.00 | 0.59 | 0.03 | 62 | 1012.4 |
| 20260507174702 | 63 | 336 | 2.6 | 3.5 | 0.00 | 0.59 | 0.03 | 61 | 1012.4 |
| 20260507174227 | 64 | 308 | 2.6 | 3.5 | 0.00 | 0.59 | 0.03 | 61 | 1012.4 |
| 20260507173702 | 64 | 297 | 2.6 | 3.5 | 0.00 | 0.59 | 0.03 | 59 | 1012.4 |
| 20260507173152 | 65 | 286 | 2.6 | 3.5 | 0.00 | 0.59 | 0.03 | 57 | 1012.4 |
| 20260507172714 | 65 | 284 | 1.7 | 2.6 | 0.00 | 0.59 | 0.03 | 56 | 1012.3 |
| 20260507172156 | 66 | 282 | 0.9 | 2.6 | 0.00 | 0.59 | 0.03 | 56 | 1012.2 |
| 20260507171658 | 66 | 282 | 1.7 | 2.6 | 0.00 | 0.59 | 0.03 | 55 | 1012.3 |
| 20260507171200 | 67 | 282 | 1.7 | 2.6 | 0.00 | 0.59 | 0.03 | 54 | 1012.3 |
| 20260507170651 | 67 | 282 | 1.7 | 2.6 | 0.00 | 0.59 | 0.03 | 53 | 1012.3 |
| 20260507170158 | 67 | 282 | 0.9 | 1.7 | 0.00 | 0.59 | 0.03 | 54 | 1012.2 |
| 20260507165725 | 67 | 282 | 0.9 | 1.7 | 0.00 | 0.63 | 0.03 | 54 | 1012.1 |
| 20260507165205 | 68 | 282 | 0.9 | 2.6 | 0.00 | 0.63 | 0.03 | 51 | 1012.1 |
| 20260507164701 | 68 | 281 | 0.9 | 3.5 | 0.00 | 0.63 | 0.03 | 48 | 1012.1 |
| 20260507164159 | 68 | 281 | 1.7 | 3.5 | 0.00 | 0.63 | 0.03 | 48 | 1012.1 |
| 20260507163723 | 68 | 281 | 0.9 | 4.3 | 0.00 | 0.63 | 0.03 | 48 | 1012.1 |
| 20260507163228 | 68 | 281 | 1.7 | 4.3 | 0.00 | 0.63 | 0.03 | 49 | 1012.0 |
| 20260507162706 | 68 | 291 | 2.6 | 4.3 | 0.00 | 0.63 | 0.03 | 49 | 1012.0 |
| 20260507162204 | 68 | 271 | 1.7 | 4.3 | 0.00 | 0.63 | 0.03 | 48 | 1012.1 |
| 20260507161722 | 67 | 279 | 0.9 | 4.3 | 0.00 | 0.63 | 0.03 | 48 | 1012.0 |
| 20260507161158 | 68 | 309 | 2.6 | 4.3 | 0.00 | 0.63 | 0.03 | 50 | 1012.0 |
| 20260507160703 | 67 | 309 | 2.6 | 4.3 | 0.00 | 0.63 | 0.03 | 49 | 1012.0 |
| 20260507160213 | 67 | 242 | 1.7 | 4.3 | 0.00 | 0.63 | 0.03 | 50 | 1012.1 |
| 20260507155700 | 67 | 276 | 1.7 | 4.3 | 0.00 | 3.86 | 0.03 | 51 | 1012.1 |
| 20260507155205 | 66 | 284 | 2.6 | 4.3 | 0.00 | 3.86 | 0.03 | 51 | 1012.2 |
| 20260507154700 | 66 | 290 | 2.6 | 5.2 | 0.00 | 3.86 | 0.03 | 51 | 1012.1 |
| 20260507154158 | 66 | 290 | 2.6 | 5.2 | 0.00 | 3.86 | 0.03 | 52 | 1012.1 |
| 20260507153656 | 66 | 273 | 2.6 | 5.2 | 0.00 | 3.86 | 0.03 | 52 | 1012.1 |
| 20260507153155 | 66 | 271 | 2.6 | 5.2 | 0.00 | 3.86 | 0.03 | 52 | 1012.1 |
| 20260507152653 | 66 | 265 | 3.5 | 5.2 | 0.00 | 3.86 | 0.03 | 52 | 1012.0 |
| 20260507152150 | 66 | 266 | 2.6 | 6.1 | 0.00 | 3.86 | 0.03 | 52 | 1012.0 |
| 20260507151708 | 66 | 293 | 3.5 | 6.1 | 0.00 | 3.86 | 0.03 | 52 | 1012.1 |
| 20260507151206 | 66 | 292 | 3.5 | 7.0 | 0.00 | 3.86 | 0.03 | 52 | 1012.1 |
| 20260507150709 | 66 | 263 | 4.3 | 7.0 | 0.00 | 3.86 | 0.03 | 52 | 1012.1 |
| 20260507150157 | 67 | 294 | 1.7 | 6.1 | 0.00 | 3.86 | 0.03 | 52 | 1012.0 |
| 20260507145653 | 67 | 270 | 2.6 | 5.2 | 0.00 | 6.34 | 0.03 | 52 | 1012.1 |
| 20260507145215 | 67 | 302 | 2.6 | 7.0 | 0.00 | 6.34 | 0.03 | 51 | 1012.1 |
| 20260507144659 | 67 | 265 | 4.3 | 8.7 | 0.00 | 6.34 | 0.03 | 51 | 1012.1 |
| 20260507144156 | 67 | 198 | 3.5 | 8.7 | 0.00 | 6.34 | 0.03 | 50 | 1012.0 |
| 20260507143658 | 67 | 261 | 4.3 | 6.1 | 0.00 | 6.34 | 0.03 | 51 | 1012.1 |
| 20260507143214 | 67 | 14 | 3.5 | 6.1 | 0.00 | 6.34 | 0.03 | 50 | 1012.1 |
| 20260507142652 | 67 | 241 | 3.5 | 6.1 | 0.00 | 6.34 | 0.03 | 49 | 1012.1 |
| 20260507142149 | 67 | 343 | 3.5 | 6.1 | 0.00 | 6.34 | 0.03 | 49 | 1012.1 |
| 20260507141707 | 67 | 207 | 2.6 | 7.8 | 0.00 | 6.34 | 0.03 | 52 | 1012.1 |
| 20260507141203 | 66 | 213 | 4.3 | 7.8 | 0.00 | 6.34 | 0.03 | 51 | 1012.2 |
| 20260507140703 | 67 | 273 | 2.6 | 8.7 | 0.00 | 6.34 | 0.03 | 52 | 1012.2 |
| 20260507140150 | 66 | 285 | 2.6 | 6.1 | 0.00 | 6.34 | 0.03 | 52 | 1012.2 |
| 20260507135701 | 67 | 284 | 3.5 | 6.1 | 0.00 | 6.34 | 0.03 | 49 | 1012.3 |
| 20260507135159 | 67 | 306 | 4.3 | 7.8 | 0.00 | 6.34 | 0.03 | 51 | 1012.3 |
| 20260507134657 | 66 | 252 | 4.3 | 9.6 | 0.00 | 6.34 | 0.03 | 55 | 1012.3 |
| 20260507134149 | 66 | 254 | 7.0 | 9.6 | 0.00 | 6.34 | 0.03 | 52 | 1012.4 |
| 20260507133649 | 66 | 317 | 3.5 | 8.7 | 0.00 | 6.34 | 0.03 | 52 | 1012.5 |
| 20260507133158 | 66 | 323 | 3.5 | 8.7 | 0.00 | 6.34 | 0.03 | 54 | 1012.5 |
| 20260507132652 | 66 | 319 | 4.3 | 7.0 | 0.00 | 6.34 | 0.03 | 54 | 1012.5 |
| 20260507132206 | 66 | 248 | 5.2 | 7.0 | 0.00 | 6.34 | 0.03 | 55 | 1012.6 |
| 20260507131652 | 66 | 275 | 3.5 | 7.0 | 0.00 | 6.34 | 0.03 | 54 | 1012.6 |
| 20260507131155 | 66 | 276 | 3.5 | 8.7 | 0.00 | 6.34 | 0.03 | 55 | 1012.6 |
| 20260507130716 | 66 | 273 | 5.2 | 8.7 | 0.00 | 6.34 | 0.03 | 54 | 1012.7 |
| 20260507130221 | 66 | 253 | 1.7 | 9.6 | 0.00 | 6.34 | 0.03 | 55 | 1012.7 |
| 20260507125716 | 66 | 336 | 5.2 | 9.6 | 0.00 | 6.46 | 0.03 | 54 | 1012.7 |
| 20260507125152 | 66 | 241 | 5.2 | 9.6 | 0.00 | 6.46 | 0.03 | 53 | 1012.7 |
| 20260507124650 | 65 | 204 | 3.5 | 9.6 | 0.00 | 6.46 | 0.03 | 56 | 1012.7 |
| 20260507124226 | 65 | 287 | 1.7 | 7.8 | 0.00 | 6.46 | 0.03 | 55 | 1012.8 |
| 20260507123721 | 66 | 271 | 5.2 | 7.8 | 0.00 | 6.46 | 0.03 | 56 | 1012.8 |
| 20260507123151 | 65 | 279 | 3.5 | 9.6 | 0.00 | 6.46 | 0.03 | 57 | 1012.8 |
| 20260507122649 | 65 | 234 | 6.1 | 9.6 | 0.00 | 6.46 | 0.03 | 54 | 1012.8 |
| 20260507122152 | 65 | 264 | 3.5 | 7.0 | 0.00 | 6.46 | 0.03 | 59 | 1012.7 |
| 20260507121708 | 65 | 211 | 4.3 | 7.0 | 0.00 | 6.46 | 0.03 | 61 | 1012.8 |
| 20260507121206 | 65 | 205 | 4.3 | 7.0 | 0.00 | 6.46 | 0.03 | 57 | 1012.9 |
| 20260507120659 | 65 | 265 | 0.9 | 7.0 | 0.00 | 6.46 | 0.03 | 60 | 1012.9 |
| 20260507120149 | 64 | 276 | 3.5 | 7.8 | 0.00 | 6.46 | 0.03 | 62 | 1012.9 |
| 20260507115701 | 64 | 264 | 3.5 | 7.0 | 0.00 | 7.52 | 0.03 | 60 | 1012.9 |
| 20260507115202 | 64 | 286 | 3.5 | 9.6 | 0.00 | 7.52 | 0.03 | 62 | 1013.0 |
| 20260507114719 | 64 | 257 | 2.6 | 7.0 | 0.00 | 7.52 | 0.03 | 62 | 1013.0 |
| 20260507114156 | 65 | 238 | 3.5 | 7.8 | 0.00 | 7.52 | 0.03 | 60 | 1013.1 |
| 20260507113656 | 64 | 292 | 4.3 | 7.8 | 0.00 | 7.52 | 0.03 | 58 | 1013.1 |
| 20260507113200 | 64 | 244 | 2.6 | 6.1 | 0.00 | 7.52 | 0.03 | 60 | 1013.1 |
| 20260507112701 | 64 | 243 | 2.6 | 7.8 | 0.00 | 7.52 | 0.03 | 58 | 1013.2 |
| 20260507112202 | 64 | 252 | 5.2 | 7.8 | 0.00 | 7.52 | 0.03 | 60 | 1013.2 |
| 20260507111725 | 64 | 348 | 1.7 | 5.2 | 0.00 | 7.52 | 0.03 | 61 | 1013.3 |
| 20260507111203 | 64 | 254 | 1.7 | 7.8 | 0.00 | 7.52 | 0.03 | 63 | 1013.3 |
| 20260507110700 | 63 | 222 | 3.5 | 7.8 | 0.00 | 7.52 | 0.03 | 62 | 1013.3 |
| 20260507110204 | 63 | 269 | 3.5 | 5.2 | 0.00 | 7.52 | 0.03 | 64 | 1013.4 |
| 20260507105700 | 62 | 333 | 2.6 | 6.1 | 0.00 | 7.52 | 0.03 | 62 | 1013.5 |
| 20260507105223 | 63 | 336 | 2.6 | 7.8 | 0.00 | 7.52 | 0.03 | 66 | 1013.5 |
| 20260507104659 | 62 | 287 | 4.3 | 7.0 | 0.00 | 7.52 | 0.03 | 64 | 1013.5 |
| 20260507104155 | 63 | 308 | 3.5 | 7.0 | 0.00 | 7.52 | 0.03 | 63 | 1013.5 |
| 20260507103651 | 63 | 289 | 3.5 | 7.0 | 0.00 | 7.52 | 0.03 | 65 | 1013.5 |
| 20260507103222 | 63 | 267 | 2.6 | 6.1 | 0.00 | 7.52 | 0.03 | 66 | 1013.5 |
| 20260507102659 | 63 | 272 | 1.7 | 6.1 | 0.00 | 7.52 | 0.03 | 65 | 1013.6 |
| 20260507102155 | 63 | 282 | 1.7 | 6.1 | 0.00 | 7.52 | 0.03 | 65 | 1013.5 |
| 20260507101704 | 62 | 297 | 2.6 | 6.1 | 0.00 | 7.52 | 0.03 | 67 | 1013.5 |
| 20260507101202 | 62 | 297 | 2.6 | 7.0 | 0.00 | 7.52 | 0.03 | 66 | 1013.7 |
| 20260507100659 | 61 | 254 | 3.5 | 7.0 | 0.00 | 7.52 | 0.03 | 63 | 1013.7 |
| 20260507100146 | 62 | 308 | 1.7 | 4.3 | 0.00 | 7.52 | 0.03 | 66 | 1013.7 |
| 20260507095651 | 62 | 247 | 1.7 | 5.2 | 0.00 | 8.03 | 0.03 | 64 | 1013.7 |
| 20260507095158 | 61 | 195 | 3.5 | 5.2 | 0.00 | 8.03 | 0.03 | 64 | 1013.7 |
| 20260507094656 | 62 | 245 | 1.7 | 4.3 | 0.00 | 8.03 | 0.03 | 62 | 1013.7 |
| 20260507094203 | 61 | 252 | 2.6 | 7.0 | 0.00 | 8.03 | 0.03 | 63 | 1013.7 |
| 20260507093720 | 61 | 323 | 3.5 | 7.0 | 0.00 | 8.03 | 0.03 | 63 | 1013.7 |
| 20260507093209 | 60 | 282 | 2.6 | 5.2 | 0.00 | 8.03 | 0.03 | 64 | 1013.7 |
| 20260507092705 | 60 | 240 | 2.6 | 6.1 | 0.00 | 8.03 | 0.03 | 64 | 1013.7 |
| 20260507092222 | 60 | 272 | 3.5 | 6.1 | 0.00 | 8.03 | 0.03 | 65 | 1013.7 |
| 20260507091657 | 60 | 281 | 1.7 | 5.2 | 0.00 | 8.03 | 0.03 | 66 | 1013.6 |
| 20260507091157 | 60 | 161 | 1.7 | 4.3 | 0.00 | 8.03 | 0.03 | 63 | 1013.6 |
| 20260507090653 | 60 | 150 | 2.6 | 4.3 | 0.00 | 8.03 | 0.03 | 64 | 1013.6 |
| 20260507090157 | 59 | 154 | 2.6 | 5.2 | 0.00 | 8.03 | 0.03 | 66 | 1013.6 |
| 20260507085653 | 60 | 150 | 2.6 | 5.2 | 0.00 | 8.50 | 0.03 | 66 | 1013.6 |
| 20260507085149 | 60 | 174 | 2.6 | 4.3 | 0.00 | 8.50 | 0.03 | 65 | 1013.7 |
| 20260507084706 | 58 | 197 | 1.7 | 3.5 | 0.00 | 8.50 | 0.03 | 69 | 1013.6 |
| 20260507084200 | 58 | 197 | 1.7 | 3.5 | 0.00 | 8.50 | 0.03 | 71 | 1013.6 |
| 20260507083650 | 58 | 197 | 1.7 | 3.5 | 0.00 | 8.50 | 0.03 | 71 | 1013.5 |
| 20260507083201 | 59 | 197 | 1.7 | 6.1 | 0.00 | 8.50 | 0.03 | 70 | 1013.5 |
| 20260507082659 | 59 | 199 | 3.5 | 6.1 | 0.00 | 8.50 | 0.03 | 68 | 1013.5 |
| 20260507082155 | 61 | 159 | 2.6 | 4.3 | 0.00 | 8.50 | 0.03 | 67 | 1013.5 |
| 20260507081656 | 59 | 202 | 2.6 | 4.3 | 0.00 | 8.50 | 0.03 | 67 | 1013.4 |
| 20260507081150 | 59 | 200 | 2.6 | 6.1 | 0.00 | 8.50 | 0.03 | 68 | 1013.4 |
| 20260507080646 | 59 | 209 | 3.5 | 6.1 | 0.00 | 8.50 | 0.03 | 68 | 1013.4 |
| 20260507080153 | 59 | 183 | 1.7 | 4.3 | 0.00 | 8.50 | 0.03 | 67 | 1013.3 |
| 20260507075700 | 59 | 181 | 2.6 | 4.3 | 0.00 | 8.74 | 0.03 | 66 | 1013.3 |
| 20260507075204 | 59 | 161 | 2.6 | 4.3 | 0.00 | 8.74 | 0.03 | 67 | 1013.2 |
| 20260507074719 | 59 | 154 | 1.7 | 4.3 | 0.00 | 8.74 | 0.03 | 67 | 1013.2 |
| 20260507074200 | 59 | 134 | 2.6 | 3.5 | 0.00 | 8.74 | 0.03 | 68 | 1013.2 |
| 20260507073657 | 59 | 122 | 1.7 | 3.5 | 0.00 | 8.74 | 0.03 | 68 | 1013.2 |
| 20260507073212 | 59 | 119 | 0.9 | 3.5 | 0.00 | 8.74 | 0.03 | 69 | 1013.1 |
| 20260507072650 | 58 | 119 | 1.7 | 4.3 | 0.00 | 8.74 | 0.03 | 70 | 1013.1 |
| 20260507072158 | 58 | 117 | 1.7 | 4.3 | 0.00 | 8.74 | 0.03 | 71 | 1013.1 |
| 20260507071652 | 57 | 88 | 1.7 | 6.1 | 0.00 | 8.74 | 0.03 | 69 | 1013.1 |
| 20260507071208 | 57 | 86 | 1.7 | 6.1 | 0.00 | 8.74 | 0.03 | 70 | 1013.1 |
| 20260507070702 | 58 | 71 | 0.9 | 2.6 | 0.00 | 8.74 | 0.03 | 69 | 1013.1 |
| 20260507070149 | 57 | 69 | 0.9 | 3.5 | 0.00 | 8.74 | 0.03 | 72 | 1013.0 |
| 20260507065724 | 57 | 67 | 2.6 | 9.6 | 0.00 | 8.74 | 0.03 | 71 | 1013.0 |
| 20260507065201 | 56 | 344 | 3.5 | 12.2 | 0.00 | 8.74 | 0.03 | 67 | 1012.9 |
| 20260507064656 | 55 | 340 | 7.0 | 15.6 | 0.00 | 8.74 | 0.03 | 67 | 1012.9 |
| 20260507064158 | 55 | 327 | 10.4 | 16.5 | 0.00 | 8.74 | 0.03 | 69 | 1012.9 |
| 20260507063709 | 55 | 340 | 9.6 | 16.5 | 0.00 | 8.74 | 0.03 | 69 | 1012.8 |
| 20260507063205 | 54 | 340 | 7.0 | 16.5 | 0.00 | 8.74 | 0.03 | 71 | 1012.7 |
| 20260507062701 | 53 | 304 | 9.6 | 16.5 | 0.00 | 8.74 | 0.03 | 72 | 1012.7 |
| 20260507062152 | 53 | 360 | 7.0 | 13.0 | 0.00 | 8.74 | 0.03 | 75 | 1012.6 |
| 20260507061647 | 51 | 13 | 5.2 | 9.6 | 0.00 | 8.74 | 0.03 | 81 | 1012.6 |
| 20260507061158 | 51 | 157 | 1.7 | 2.6 | 0.00 | 8.74 | 0.03 | 82 | 1012.5 |
| 20260507060716 | 52 | 157 | 0.9 | 2.6 | 0.00 | 8.74 | 0.03 | 81 | 1012.6 |
| 20260507060202 | 52 | 173 | 1.7 | 7.8 | 0.00 | 8.74 | 0.03 | 79 | 1012.6 |
| 20260507055655 | 53 | 173 | 4.3 | 8.7 | 0.00 | 8.90 | 0.03 | 76 | 1012.6 |
| 20260507055209 | 53 | 15 | 4.3 | 8.7 | 0.00 | 8.90 | 0.03 | 74 | 1012.5 |
| 20260507054700 | 53 | 16 | 2.6 | 10.4 | 0.00 | 8.90 | 0.03 | 73 | 1012.5 |
| 20260507054158 | 53 | 336 | 4.3 | 10.4 | 0.00 | 8.90 | 0.03 | 74 | 1012.5 |
| 20260507053652 | 53 | 311 | 2.6 | 6.1 | 0.00 | 8.90 | 0.03 | 78 | 1012.4 |
| 20260507053153 | 53 | 202 | 3.5 | 6.1 | 0.00 | 8.90 | 0.03 | 76 | 1012.3 |
| 20260507052702 | 54 | 243 | 1.7 | 4.3 | 0.00 | 8.90 | 0.03 | 74 | 1012.2 |
| 20260507052156 | 54 | 134 | 1.7 | 3.5 | 0.00 | 8.90 | 0.03 | 74 | 1012.3 |
| 20260507051653 | 54 | 138 | 1.7 | 3.5 | 0.00 | 8.90 | 0.03 | 73 | 1012.2 |
| 20260507051146 | 54 | 169 | 1.7 | 3.5 | 0.00 | 8.90 | 0.03 | 72 | 1012.1 |
| 20260507050700 | 54 | 173 | 1.7 | 5.2 | 0.00 | 8.90 | 0.03 | 70 | 1012.0 |
| 20260507050159 | 54 | 180 | 2.6 | 5.2 | 0.00 | 8.90 | 0.03 | 68 | 1011.9 |
| 20260507045654 | 54 | 325 | 2.6 | 12.2 | 0.00 | 9.13 | 0.03 | 68 | 1011.9 |
| 20260507045207 | 55 | 5 | 6.1 | 12.2 | 0.00 | 9.13 | 0.03 | 67 | 1011.8 |
| 20260507044704 | 55 | 360 | 4.3 | 12.2 | 0.00 | 9.13 | 0.03 | 66 | 1011.7 |
| 20260507044154 | 55 | 56 | 5.2 | 12.2 | 0.00 | 9.13 | 0.03 | 65 | 1011.6 |
| 20260507043711 | 55 | 22 | 8.7 | 12.2 | 0.00 | 9.13 | 0.03 | 65 | 1011.5 |
| 20260507043154 | 55 | 63 | 7.0 | 14.8 | 0.00 | 9.13 | 0.03 | 64 | 1011.4 |
| 20260507042710 | 55 | 11 | 7.8 | 14.8 | 0.00 | 9.13 | 0.03 | 64 | 1011.5 |
| 20260507042205 | 55 | 34 | 7.0 | 13.0 | 0.00 | 9.13 | 0.03 | 65 | 1011.4 |
| 20260507041702 | 55 | 55 | 8.7 | 13.0 | 0.00 | 9.13 | 0.03 | 66 | 1011.5 |
| 20260507041152 | 55 | 23 | 5.2 | 17.4 | 0.00 | 9.13 | 0.03 | 66 | 1011.4 |
| 20260507040649 | 55 | 54 | 7.0 | 13.0 | 0.00 | 9.13 | 0.03 | 65 | 1011.4 |
| 20260507040216 | 55 | 29 | 6.1 | 13.9 | 0.00 | 9.13 | 0.03 | 66 | 1011.4 |
| 20260507035702 | 55 | 71 | 7.8 | 13.9 | 0.00 | 9.13 | 0.03 | 66 | 1011.4 |
| 20260507035155 | 54 | 32 | 9.6 | 14.8 | 0.00 | 9.13 | 0.03 | 67 | 1011.5 |
| 20260507034653 | 54 | 64 | 7.8 | 13.0 | 0.00 | 9.13 | 0.03 | 69 | 1011.4 |
| 20260507034150 | 54 | 39 | 5.2 | 13.0 | 0.00 | 9.13 | 0.03 | 69 | 1011.6 |
| 20260507033649 | 53 | 322 | 6.1 | 13.0 | 0.00 | 9.13 | 0.03 | 71 | 1011.7 |
| 20260507033154 | 53 | 42 | 6.1 | 11.3 | 0.00 | 9.13 | 0.03 | 72 | 1011.8 |
| 20260507032707 | 53 | 47 | 6.1 | 10.4 | 0.00 | 9.13 | 0.03 | 72 | 1011.7 |
| 20260507032202 | 53 | 350 | 4.3 | 13.0 | 0.00 | 9.13 | 0.03 | 73 | 1011.7 |
| 20260507031700 | 53 | 319 | 7.8 | 13.0 | 0.00 | 9.13 | 0.03 | 74 | 1011.8 |
| 20260507031200 | 53 | 319 | 5.2 | 13.0 | 0.00 | 9.13 | 0.03 | 74 | 1011.8 |
| 20260507030657 | 52 | 25 | 6.1 | 15.6 | 0.00 | 9.13 | 0.03 | 75 | 1011.8 |
| 20260507030159 | 53 | 336 | 9.6 | 15.6 | 0.00 | 9.13 | 0.03 | 73 | 1011.8 |
| 20260507025658 | 53 | 13 | 5.2 | 14.8 | 0.00 | 9.13 | 0.03 | 74 | 1011.7 |
| 20260507025151 | 52 | 360 | 8.7 | 13.9 | 0.00 | 9.13 | 0.03 | 76 | 1011.8 |
| 20260507024707 | 52 | 17 | 6.1 | 13.0 | 0.00 | 9.13 | 0.03 | 76 | 1011.7 |
| 20260507024203 | 53 | 46 | 6.1 | 13.9 | 0.00 | 9.13 | 0.03 | 74 | 1011.7 |
| 20260507023650 | 54 | 329 | 7.8 | 13.0 | 0.00 | 9.13 | 0.03 | 71 | 1011.8 |
| 20260507023200 | 53 | 355 | 8.7 | 14.8 | 0.00 | 9.13 | 0.03 | 73 | 1011.7 |
| 20260507022715 | 52 | 71 | 6.1 | 14.8 | 0.00 | 9.13 | 0.03 | 76 | 1011.7 |
| 20260507022216 | 52 | 347 | 4.3 | 13.0 | 0.00 | 9.13 | 0.03 | 78 | 1011.7 |
| 20260507021649 | 51 | 350 | 4.3 | 13.9 | 0.00 | 9.13 | 0.03 | 80 | 1011.8 |
| 20260507021225 | 51 | 302 | 7.8 | 14.8 | 0.00 | 9.13 | 0.03 | 81 | 1011.9 |
| 20260507020646 | 51 | 326 | 9.6 | 18.2 | 0.04 | 9.13 | 0.03 | 82 | 1011.8 |
| 20260507020154 | 51 | 355 | 9.6 | 20.0 | 0.04 | 9.13 | 0.03 | 82 | 1012.0 |
| 20260507015653 | 52 | 355 | 7.8 | 19.1 | 0.04 | 9.21 | 0.03 | 80 | 1012.0 |
| 20260507015147 | 52 | 355 | 9.6 | 19.1 | 0.04 | 9.21 | 0.03 | 79 | 1011.9 |
| 20260507014702 | 52 | 5 | 10.4 | 15.6 | 0.04 | 9.21 | 0.03 | 77 | 1011.7 |
| 20260507014202 | 52 | 5 | 8.7 | 19.1 | 0.08 | 9.21 | 0.03 | 77 | 1011.4 |
| 20260507013654 | 52 | 5 | 12.2 | 19.1 | 0.08 | 9.21 | 0.03 | 77 | 1011.5 |
| 20260507013204 | 53 | 9 | 10.4 | 16.5 | 0.08 | 9.21 | 0.03 | 77 | 1011.4 |
| 20260507012703 | 52 | 18 | 8.7 | 19.1 | 0.08 | 9.21 | 0.03 | 77 | 1011.2 |
| 20260507012154 | 53 | 25 | 5.2 | 19.1 | 0.08 | 9.21 | 0.03 | 77 | 1011.0 |
| 20260507011652 | 53 | 25 | 7.0 | 13.9 | 0.12 | 9.21 | 0.03 | 76 | 1011.0 |
| 20260507010706 | 53 | 67 | 6.1 | 11.3 | 0.08 | 9.17 | 0.02 | 77 | 1011.0 |
| 20260507010203 | 53 | 39 | 7.0 | 11.3 | 0.08 | 9.17 | 0.02 | 77 | 1011.0 |
| 20260507005701 | 53 | 32 | 4.3 | 9.6 | 0.08 | 9.29 | 0.02 | 76 | 1011.0 |
| 20260507005159 | 53 | 9 | 5.2 | 14.8 | 0.08 | 9.29 | 0.02 | 76 | 1011.0 |
| 20260507004657 | 53 | 351 | 7.0 | 14.8 | 0.08 | 9.29 | 0.02 | 75 | 1011.2 |
| 20260507004156 | 52 | 355 | 8.7 | 21.7 | 0.04 | 9.25 | 0.01 | 77 | 1011.2 |
| 20260507003653 | 52 | 360 | 11.3 | 23.5 | 0.04 | 9.25 | 0.01 | 80 | 1011.3 |
| 20260507003159 | 51 | 13 | 13.9 | 23.5 | 0.04 | 9.25 | 0.01 | 81 | 1011.5 |
| 20260507002657 | 52 | 12 | 11.3 | 22.6 | 0.04 | 9.25 | 0.01 | 78 | 1011.5 |
| 20260507002202 | 53 | 355 | 7.8 | 15.6 | 0.04 | 9.25 | 0.01 | 74 | 1011.4 |
| 20260507001701 | 53 | 355 | 8.7 | 19.1 | 0.00 | 9.21 | 0.00 | 74 | 1011.4 |
| 20260507001156 | 54 | 334 | 11.3 | 19.1 | 0.00 | 9.21 | 0.00 | 72 | 1011.4 |
| 20260507000712 | 54 | 360 | 7.8 | 13.9 | 0.00 | 9.21 | 0.00 | 72 | 1011.3 |
| 20260507000157 | 53 | 360 | 6.1 | 14.8 | 0.00 | 9.21 | 0.00 | 73 | 1011.3 |
| 20260506235654 | 53 | 341 | 7.0 | 14.8 | 0.00 | 9.37 | 0.00 | 74 | 1011.4 |
| 20260506235213 | 52 | 327 | 8.7 | 16.5 | 0.00 | 9.37 | 0.00 | 77 | 1011.5 |
| 20260506234727 | 52 | 11 | 8.7 | 18.2 | 0.00 | 9.37 | 0.00 | 80 | 1011.6 |
| 20260506234156 | 51 | 331 | 9.6 | 18.2 | 0.00 | 9.37 | 0.00 | 81 | 1011.7 |
| 20260506233651 | 51 | 15 | 9.6 | 20.9 | 0.00 | 9.37 | 0.00 | 82 | 1011.6 |
| 20260506233204 | 52 | 18 | 13.0 | 25.2 | 0.00 | 9.37 | 0.00 | 81 | 1011.7 |
| 20260506232703 | 53 | 322 | 13.0 | 25.2 | 0.00 | 9.37 | 0.00 | 76 | 1011.4 |
| 20260506232223 | 54 | 15 | 9.6 | 15.6 | 0.00 | 9.37 | 0.00 | 73 | 1011.2 |
| 20260506231712 | 54 | 339 | 9.6 | 15.6 | 0.00 | 9.37 | 0.00 | 72 | 1011.1 |
| 20260506231215 | 54 | 355 | 9.6 | 15.6 | 0.00 | 9.37 | 0.00 | 72 | 1011.1 |
| 20260506230652 | 54 | 32 | 9.6 | 18.2 | 0.00 | 9.37 | 0.00 | 72 | 1011.1 |
| 20260506230157 | 53 | 344 | 12.2 | 18.2 | 0.00 | 9.37 | 0.00 | 75 | 1011.2 |
| 20260506225657 | 53 | 21 | 9.6 | 18.2 | 0.00 | 9.72 | 0.00 | 74 | 1011.2 |
| 20260506225153 | 53 | 9 | 8.7 | 19.1 | 0.00 | 9.72 | 0.00 | 74 | 1011.1 |
| 20260506224654 | 53 | 331 | 9.6 | 19.1 | 0.00 | 9.72 | 0.00 | 77 | 1011.0 |
| 20260506224213 | 53 | 12 | 9.6 | 19.1 | 0.00 | 9.72 | 0.00 | 77 | 1011.0 |
| 20260506223649 | 53 | 5 | 11.3 | 19.1 | 0.00 | 9.72 | 0.00 | 77 | 1011.1 |
| 20260506223154 | 53 | 5 | 11.3 | 16.5 | 0.00 | 9.72 | 0.00 | 76 | 1011.2 |
| 20260506222649 | 54 | 31 | 11.3 | 16.5 | 0.00 | 9.72 | 0.00 | 76 | 1011.1 |
| 20260506222153 | 54 | 333 | 10.4 | 16.5 | 0.00 | 9.72 | 0.00 | 77 | 1011.0 |
| 20260506221704 | 54 | 348 | 10.4 | 16.5 | 0.00 | 9.72 | 0.00 | 76 | 1011.0 |
| 20260506221207 | 54 | 9 | 11.3 | 20.9 | 0.00 | 9.72 | 0.00 | 77 | 1010.8 |
| 20260506220659 | 54 | 355 | 11.3 | 20.9 | 0.00 | 9.72 | 0.00 | 75 | 1010.9 |
| 20260506220219 | 55 | 355 | 11.3 | 17.4 | 0.00 | 9.72 | 0.00 | 73 | 1011.0 |
| 20260506215654 | 55 | 338 | 9.6 | 18.2 | 0.00 | 1.04 | 2.47 | 72 | 1010.9 |
| 20260506215229 | 55 | 10 | 9.6 | 18.2 | 0.04 | 1.04 | 2.47 | 73 | 1010.8 |
| 20260506214655 | 55 | 355 | 10.4 | 15.6 | 0.04 | 1.04 | 2.47 | 72 | 1010.8 |
| 20260506214201 | 54 | 350 | 6.1 | 9.6 | 0.04 | 1.04 | 2.47 | 75 | 1010.8 |
| 20260506213700 | 54 | 23 | 0.0 | 6.1 | 0.04 | 1.04 | 2.47 | 77 | 1010.7 |
| 20260506213149 | 55 | 81 | 1.7 | 8.7 | 0.04 | 1.04 | 2.47 | 75 | 1010.7 |